Location: Unspecified
(0.0000°N, 0.0000°E)
Time: 06:37:13
(UTC+00:00)

Vanguard 1 Rocket - Pass Details

Date: 16 December 2017
Orbit: 652 x 4225 km, 34.3° (Epoch: 21 July)

Event Time Altitude Azimuth Distance (km) Brightness Sun altitude
Rises 11:46:16 0° 223° (SW) 3,109 10.4 66.6°
Reaches altitude 10° 11:48:46 10° 215° (SW) 2,078 9.7 66.6°
Maximum altitude 11:52:58 42° 143° (SE) 936 8.7 66.7°
Drops below altitude 10° 11:57:38 10° 71° (ENE) 2,314 9.5 66.7°
Sets 12:00:34 0° 64° (ENE) 3,518 10.3 66.6°
